Theta_e
303 303 303 303 303 303 303 303 303 303 303 303 304 304 303 304 304 303 302 304 305 307 308 309 309 309 310 311 313 315 316 316 314 314 313 313 313 312 313 313 314 315 316 317 317 317 318 317 317 318 317 317 318 319 320 323 324 324 324 322 326 328 324 320 319 321 324 325 327 328 327 327 324 324 326 323 322 322 321 330 337 327 319 323 321 318 330
304 304 304 304 303 303 303 303 303 303 303 303 304 304 304 304 304 303 303 304 305 307 309 309 309 309 309 310 310 312 313 314 314 314 313 313 312 312 313 313 313 314 315 316 317 317 317 318 318 318 317 318 318 319 320 319 321 322 324 324 324 324 323 322 319 319 321 322 322 323 324 325 323 323 325 323 325 323 321 329 332 324 322 323 317 316 329
304 304 304 304 304 303 303 303 303 303 303 303 303 304 304 304 304 304 304 304 305 306 308 308 307 308 308 309 309 309 310 311 312 312 311 312 312 313 313 314 314 315 314 315 316 316 318 319 319 319 319 319 319 319 319 318 319 323 330 332 325 322 325 324 319 317 318 318 320 324 326 324 323 325 324 323 326 322 321 322 319 320 326 326 322 323 336
304 304 304 304 304 303 303 303 303 303 303 303 303 303 304 304 304 304 304 305 305 306 306 307 306 306 306 308 308 308 309 309 309 310 310 311 312 313 313 314 314 314 314 314 315 316 317 317 318 318 317 317 317 317 318 319 320 326 333 333 328 323 326 325 322 320 319 321 330 339 334 323 320 323 322 323 325 322 323 320 316 325 330 324 330 339 337
305 305 305 305 304 304 303 303 303 303 303 303 303 303 304 304 303 304 304 305 305 305 306 306 306 306 307 307 308 308 308 308 309 310 310 311 312 312 312 313 314 314 314 313 314 315 315 316 317 316 315 316 316 316 317 319 321 327 328 325 327 326 323 324 326 324 322 327 335 337 331 323 321 323 321 323 325 323 322 318 320 334 327 315 335 354 334
305 305 305 305 305 304 304 303 303 303 303 303 303 303 304 304 304 304 304 305 305 305 305 306 306 306 307 307 308 308 308 308 308 309 309 310 311 311 312 312 313 313 313 313 314 314 315 316 316 314 314 314 315 316 317 318 320 323 321 320 324 325 323 322 324 324 324 326 328 328 330 327 324 324 322 322 324 322 321 320 324 334 323 316 339 359 338
304 305 305 305 305 304 304 304 303 303 303 303 303 303 304 304 304 304 304 304 305 305 305 306 306 306 306 307 308 307 307 308 308 308 308 309 309 310 311 311 311 311 312 313 314 314 314 315 314 313 313 313 314 315 316 318 319 319 318 320 322 324 328 330 323 322 324 325 326 327 329 328 325 325 324 323 324 323 321 323 326 328 326 325 340 354 348
304 305 305 305 305 304 304 304 303 303 303 303 303 303 304 304 304 304 304 304 304 305 305 305 305 305 306 307 307 307 307 307 307 308 308 308 309 310 310 310 310 310 311 312 312 312 313 313 313 312 312 312 314 315 316 317 317 317 318 320 321 323 331 336 327 321 322 324 326 327 326 328 326 325 327 324 323 324 322 323 325 325 327 329 333 339 341
304 304 304 304 304 304 304 304 304 303 303 303 303 303 303 304 304 304 303 304 304 305 305 305 304 305 306 306 307 307 307 307 307 308 308 308 309 309 309 309 309 309 310 311 311 311 312 312 312 312 312 312 313 314 315 315 315 316 318 320 321 323 328 332 327 320 320 322 325 324 324 325 323 322 327 326 323 323 323 324 328 327 329 333 330 329 332
303 303 304 303 303 303 304 304 304 303 303 303 303 303 303 304 304 303 303 304 304 304 304 304 305 305 306 307 306 306 306 307 307 308 308 309 309 309 309 309 310 310 310 310 311 311 311 311 311 312 312 313 313 314 314 315 315 317 318 319 322 323 324 326 325 321 322 322 323 324 323 321 319 321 325 327 327 327 324 325 328 326 330 332 326 327 337
303 303 303 303 303 303 303 303 304 304 303 303 303 303 303 303 303 303 303 304 304 304 304 304 305 305 306 306 306 305 306 306 307 308 308 309 309 309 309 309 310 310 310 310 311 311 311 311 312 312 313 313 314 315 315 316 317 317 319 320 322 324 325 324 324 324 325 326 325 324 320 318 321 327 329 329 330 330 328 329 331 332 333 331 327 333 342
303 303 303 303 303 303 303 303 303 304 304 303 303 303 303 303 303 303 303 303 304 304 304 304 304 304 305 305 305 305 306 306 307 308 308 308 308 309 309 309 311 311 311 311 312 312 311 312 312 313 314 314 315 316 316 317 319 320 321 321 322 324 325 324 325 327 329 329 326 322 321 325 333 335 331 330 330 331 338 345 348 350 348 341 339 342 346
304 304 303 303 303 303 303 303 303 304 304 303 303 303 303 303 303 303 303 303 304 304 304 304 304 304 305 305 305 306 306 307 307 307 308 308 308 308 309 310 311 312 311 311 312 312 312 313 314 314 315 316 317 318 317 318 319 320 321 321 321 324 325 324 326 329 330 328 324 323 330 341 346 339 334 335 332 335 346 352 352 352 352 351 348 347 349
304 303 303 303 303 303 303 303 303 303 303 303 303 303 303 303 303 303 303 303 304 304 304 304 304 304 304 305 306 306 306 306 307 308 308 308 307 308 309 310 311 311 311 311 313 314 315 316 318 317 316 317 318 318 319 319 320 321 321 320 320 322 324 324 325 328 331 328 324 327 331 335 340 341 340 341 337 334 347 353 349 348 350 350 350 354 356
303 303 303 303 303 303 303 303 303 303 303 303 303 303 303 303 303 303 303 303 304 304 304 304 304 304 305 305 305 305 305 306 307 308 307 307 307 308 308 309 310 311 310 312 317 320 318 318 319 319 318 319 320 322 324 324 324 324 324 325 323 321 323 325 325 328 333 330 326 326 325 328 340 345 341 342 340 339 348 355 350 349 350 348 350 356 358
303 303 303 303 303 303 303 303 303 303 303 303 303 303 303 303 303 303 303 303 303 303 304 304 304 304 305 305 305 305 306 307 307 307 307 308 308 308 308 308 309 310 310 312 318 323 320 318 320 322 321 321 323 326 327 325 327 327 326 328 328 323 325 328 326 326 329 328 327 326 325 334 351 352 339 336 339 342 350 355 350 351 350 345 347 352 352
303 303 303 303 303 304 304 303 303 303 303 303 303 303 303 303 303 303 303 303 303 303 304 304 304 304 304 304 305 306 306 307 307 307 307 308 308 308 308 308 309 311 312 314 317 320 319 318 319 321 321 319 321 325 327 326 329 330 328 330 332 331 334 332 326 325 327 328 329 328 330 343 356 351 337 334 337 339 345 347 348 352 348 343 343 346 347
303 303 303 303 303 303 303 303 303 303 303 303 303 303 303 303 303 303 303 303 303 303 304 304 304 304 304 305 305 306 306 307 307 308 308 308 308 308 308 307 309 311 313 314 316 317 317 317 318 320 321 319 319 324 327 328 329 330 330 332 334 335 337 334 328 328 329 328 326 326 333 347 355 346 337 333 332 333 336 341 348 349 346 345 345 345 346
303 303 303 303 303 303 303 303 303 303 303 303 303 303 303 303 303 303 303 303 303 304 304 303 304 304 304 305 305 305 306 306 307 308 308 309 309 308 307 308 309 309 311 314 316 316 316 317 318 321 324 324 323 326 328 328 329 331 332 335 336 336 337 337 335 334 335 335 332 330 334 343 344 338 336 336 335 336 337 341 348 347 347 350 349 347 348
303 303 303 303 303 303 303 303 303 303 303 303 303 303 303 303 303 303 303 304 303 304 304 303 304 304 305 305 305 305 306 306 307 308 309 309 309 308 308 310 310 309 311 314 316 315 316 317 318 320 324 326 327 328 329 328 329 330 332 336 337 336 338 339 338 336 338 342 338 332 333 338 337 336 342 348 348 344 342 345 348 348 349 350 348 347 348
303 303 303 303 303 303 303 303 303 303 303 303 303 303 303 303 303 303 304 304 304 304 304 304 304 304 304 305 305 305 305 306 306 306 307 307 308 308 309 310 309 309 312 314 314 315 315 315 317 320 323 326 328 328 328 328 328 329 332 335 336 336 338 339 337 337 340 343 341 335 334 335 336 339 345 347 345 344 345 347 347 347 347 346 346 347 346
303 303 303 303 303 303 303 303 303 303 303 303 303 303 303 303 303 303 304 304 304 304 304 304 304 304 304 304 305 305 305 305 305 305 305 305 306 307 308 308 308 309 311 312 313 314 313 312 314 318 321 324 327 327 327 328 329 329 332 335 336 335 335 336 336 336 337 339 338 337 335 335 337 341 344 342 343 345 346 346 345 344 345 345 345 345 345
303 303 303 303 303 303 303 303 303 303 303 303 303 303 303 303 303 303 303 304 304 304 304 304 304 304 304 305 306 306 306 306 306 306 306 306 306 306 307 307 307 309 311 312 313 313 311 311 313 317 320 322 324 325 327 328 329 330 332 335 336 334 332 334 336 337 336 337 335 334 334 335 336 339 341 341 342 344 343 343 342 341 342 342 342 343 344
303 303 303 303 303 303 303 303 303 303 303 303 303 303 303 303 303 303 303 304 304 304 304 304 304 305 305 305 306 306 306 307 307 307 307 307 307 306 307 307 307 310 312 312 311 312 312 312 314 317 319 321 322 324 326 327 328 329 331 334 335 333 332 335 337 337 337 339 337 333 334 336 335 336 338 338 337 338 339 339 338 337 338 338 339 340 341
303 303 303 302 302 303 303 303 303 303 302 302 303 303 303 302 302 303 303 304 305 305 305 305 305 305 305 305 305 305 306 306 307 307 307 308 307 307 308 308 308 309 311 311 311 312 313 313 314 316 317 318 320 323 324 325 325 327 330 333 334 332 333 336 337 337 337 337 335 333 334 335 333 333 334 334 333 334 335 335 335 335 334 334 336 338 339
303 303 303 303 303 302 302 302 302 302 302 302 302 302 302 302 302 302 303 304 305 305 305 305 305 305 305 305 305 305 306 306 307 307 307 307 308 308 308 308 308 308 309 310 310 311 313 314 315 316 317 318 320 321 323 324 325 326 329 331 331 332 334 335 336 338 337 335 334 333 335 336 334 332 332 332 331 331 331 332 333 333 333 334 335 336 338
304 304 304 303 303 303 303 303 302 302 302 302 302 302 302 301 302 303 304 304 305 305 305 305 305 305 305 305 305 306 307 307 307 307 307 307 307 308 308 308 309 308 308 309 309 310 312 315 316 317 317 318 319 321 322 324 325 327 329 329 330 333 334 334 335 339 339 335 333 334 336 336 334 332 330 329 329 329 329 329 330 331 332 335 335 335 336
305 304 304 304 304 303 303 303 303 302 301 301 302 302 301 302 304 305 305 305 305 306 306 305 305 305 305 305 306 307 308 308 307 308 308 308 307 308 308 308 308 308 308 309 311 312 315 316 316 317 318 318 319 321 324 324 325 327 328 329 330 332 332 332 335 338 337 333 332 333 334 334 332 331 329 328 327 326 326 325 326 327 329 333 336 336 336
305 305 305 305 304 304 304 303 303 302 302 301 302 301 301 303 305 306 305 305 305 306 306 305 305 305 305 306 307 309 310 310 309 308 309 309 309 308 307 307 308 309 308 308 310 313 316 317 316 317 318 318 319 322 324 324 326 327 328 328 329 329 330 331 333 334 334 333 331 331 331 331 330 329 329 328 327 327 325 323 324 324 325 328 332 333 333
305 306 306 306 305 305 304 303 303 302 302 302 303 302 302 304 306 306 305 305 305 305 305 305 305 305 305 306 307 309 310 310 310 310 310 310 309 308 308 308 308 308 309 309 310 312 315 316 317 317 318 317 319 322 324 324 325 326 327 327 327 327 328 330 331 333 334 333 331 329 329 329 329 328 328 328 329 329 327 324 322 322 323 324 325 326 327
306 306 307 307 306 305 304 303 303 303 303 304 304 303 303 305 306 305 304 305 305 305 305 305 305 305 306 307 307 308 309 310 311 311 311 310 309 309 309 308 308 308 309 310 310 311 313 317 318 319 318 318 320 323 324 324 324 326 326 326 326 326 326 328 330 332 333 332 330 329 328 327 327 328 328 328 329 329 327 324 323 323 324 324 323 323 323
307 307 307 307 306 305 304 304 304 304 304 305 305 305 305 305 305 304 304 304 305 305 304 304 305 306 307 307 308 308 310 311 312 312 311 311 311 311 310 309 309 309 309 310 311 312 313 315 317 318 318 318 320 323 324 324 325 326 325 325 325 325 325 327 329 331 332 331 330 329 328 327 327 327 328 329 329 329 328 326 324 323 324 324 323 324 324
308 308 308 307 306 306 306 306 306 306 306 307 307 307 307 307 306 306 306 305 305 305 305 305 306 307 307 307 308 310 312 313 313 312 312 311 310 310 309 308 309 310 311 312 313 315 315 314 316 317 319 319 320 322 324 325 325 325 325 324 325 325 325 326 327 329 330 331 331 329 328 327 327 327 327 327 326 326 327 327 325 324 324 324 324 324 324
309 309 309 309 309 309 309 308 308 308 308 308 308 308 308 308 308 308 308 306 305 306 306 306 307 308 308 308 309 311 312 313 313 313 314 313 311 310 310 310 310 312 314 314 313 314 315 316 317 320 321 320 321 323 324 325 324 324 324 324 324 325 324 324 324 325 326 328 329 329 327 328 328 328 328 327 324 323 323 323 323 323 323 324 324 325 325
309 309 310 310 310 310 309 309 309 310 310 310 309 309 309 309 309 309 308 307 307 307 307 308 308 308 308 309 310 310 311 312 314 315 314 314 313 312 312 313 313 315 315 314 313 313 315 316 319 322 323 322 322 324 325 325 324 324 324 323 323 323 323 322 322 323 325 326 327 327 327 327 327 327 328 327 325 324 324 323 323 322 323 323 324 324 325
310 310 310 310 310 310 310 310 311 311 311 310 310 310 310 310 309 309 308 307 307 307 308 309 309 309 309 310 310 310 311 313 314 314 313 314 315 313 312 314 317 316 314 313 314 315 316 317 320 322 322 322 323 324 324 324 324 323 323 322 321 321 321 321 320 321 322 324 325 326 325 325 326 326 326 327 326 326 326 326 326 325 325 324 323 323 324
311 311 310 310 310 310 311 311 312 312 311 311 311 311 310 310 309 309 308 307 308 308 308 309 309 309 309 310 310 310 311 313 314 315 314 314 315 313 312 315 318 317 314 316 317 317 317 318 321 322 322 322 322 322 321 322 323 323 321 321 321 322 322 323 321 320 320 320 322 324 324 324 325 324 325 325 325 326 326 326 326 327 327 327 326 325 324
313 313 312 310 310 311 312 312 311 311 311 312 312 311 311 310 310 310 309 309 309 309 309 309 309 309 309 310 310 310 312 313 315 316 316 315 315 314 314 315 317 316 317 319 319 318 318 320 321 322 323 322 321 320 320 321 323 323 322 323 323 324 324 325 324 322 322 322 322 322 323 323 324 323 323 324 324 325 325 325 325 326 327 327 327 327 326
314 314 313 312 311 311 310 310 310 310 311 312 312 311 311 311 311 311 310 310 309 309 309 309 309 309 310 311 311 311 312 313 315 317 317 315 315 315 315 316 316 316 318 320 320 319 320 320 319 319 322 323 322 321 322 322 323 323 323 324 324 324 324 324 324 324 324 324 323 322 322 323 324 323 323 323 324 324 325 325 325 325 326 326 327 327 328
314 314 314 313 312 310 309 309 310 312 312 312 312 312 312 311 311 312 312 311 310 310 310 310 310 310 311 311 312 313 314 314 315 316 317 316 316 316 316 317 318 318 319 320 320 320 320 317 315 316 319 322 323 323 323 323 323 323 323 323 324 324 324 324 323 323 324 324 324 323 323 324 324 323 323 323 324 324 324 324 325 325 326 326 327 327 327
313 314 314 314 312 311 310 310 310 312 313 313 313 313 313 312 312 312 312 312 313 313 312 311 312 313 313 312 313 314 314 315 315 315 316 317 317 317 318 319 319 320 320 320 321 321 319 315 314 316 318 321 322 323 323 323 323 322 322 323 323 323 323 323 323 323 323 323 324 324 324 324 324 324 324 324 324 325 325 325 325 325 325 325 326 326 327
313 314 314 314 312 311 310 310 310 311 313 313 313 313 313 314 314 314 313 313 314 314 313 313 314 315 315 315 314 315 315 316 315 316 317 318 318 318 320 321 320 319 320 321 321 320 317 315 315 318 320 321 321 321 322 323 323 322 323 323 323 323 323 323 323 323 323 323 323 324 324 324 324 324 324 325 325 325 325 325 325 325 325 325 325 325 325
314 314 314 313 311 311 311 311 310 311 312 312 312 313 314 315 315 316 316 315 314 313 314 314 315 315 316 316 316 316 316 316 316 316 318 319 318 318 321 322 321 319 320 321 320 318 316 315 317 319 320 320 320 320 320 322 322 322 322 322 322 322 323 323 323 323 322 323 323 324 324 324 324 325 325 324 324 324 324 324 324 324 324 324 325 325 325
314 314 314 313 311 311 312 313 312 312 313 312 311 313 315 315 315 315 315 315 315 315 315 316 316 317 317 317 316 317 317 317 317 317 318 319 319 320 321 322 321 320 320 320 318 315 314 315 317 319 319 319 320 320 320 321 321 322 321 321 321 322 322 322 322 322 322 322 323 323 323 323 323 323 324 324 323 323 323 323 323 323 323 324 324 324 324
314 315 314 313 312 312 313 314 313 312 314 314 313 313 314 315 315 314 315 315 315 316 316 317 317 317 318 317 317 318 318 317 318 319 319 319 321 321 321 322 322 320 318 317 316 315 314 315 318 319 319 319 320 320 320 320 321 321 321 321 321 321 321 321 321 321 321 321 321 322 322 322 321 321 321 321 320 320 320 320 321 321 322 322 323 324 324
316 315 313 313 313 313 314 315 315 314 314 314 314 314 315 315 315 315 316 316 316 317 317 318 318 318 318 318 318 318 318 318 319 320 319 320 321 320 320 320 320 318 316 317 318 317 316 317 319 320 320 320 320 320 320 320 320 320 320 321 321 321 321 321 321 320 320 319 319 319 320 321 321 320 320 319 319 318 318 318 319 319 320 320 321 322 323
315 314 312 313 315 315 315 317 317 314 313 312 312 312 314 315 315 317 317 317 317 318 319 319 319 319 319 318 319 320 319 320 321 321 320 321 322 320 319 320 320 319 319 320 320 319 319 319 320 320 320 320 319 320 320 320 320 319 319 319 320 321 320 319 319 319 319 319 318 318 318 318 319 319 318 318 318 318 318 318 317 317 318 319 319 320 321
313 313 313 315 317 317 317 317 316 313 312 313 313 314 314 315 316 318 319 319 318 319 320 319 320 320 320 320 321 321 320 320 320 321 321 321 320 320 319 320 319 319 320 321 321 321 320 320 320 321 320 319 319 320 320 320 319 319 318 319 319 319 319 318 318 317 317 317 318 318 317 317 317 317 317 317 317 317 317 318 317 316 317 317 317 318 319
311 312 313 314 315 315 316 316 315 315 315 315 316 316 317 316 317 318 320 319 319 319 319 319 319 321 320 320 320 321 321 320 319 318 318 319 320 320 320 320 320 320 321 321 320 320 320 320 320 320 320 319 319 320 319 319 319 319 319 319 319 318 318 318 318 318 317 317 317 317 317 317 317 317 316 316 316 316 316 317 317 316 316 317 317 317 317
311 311 312 313 315 316 315 315 315 316 316 315 316 317 318 318 318 318 319 318 317 317 318 318 318 319 318 318 319 320 320 319 318 317 318 320 321 320 319 320 320 321 321 320 319 320 320 319 319 319 319 319 319 319 319 319 319 319 319 319 319 318 318 318 318 318 318 317 317 317 317 317 317 316 316 316 316 316 316 317 317 316 317 317 316 316 316
311 311 312 314 316 316 316 316 317 316 316 316 317 318 318 318 318 318 317 317 317 317 318 318 318 319 318 318 319 319 318 318 318 319 319 319 319 319 320 320 320 320 320 319 320 320 319 319 319 319 319 319 319 319 319 319 319 319 319 318 318 318 318 318 317 317 318 317 317 317 317 316 316 317 316 316 316 316 316 317 317 316 316 316 316 316 316
311 313 315 316 315 315 316 316 317 317 317 318 319 319 318 318 318 317 317 316 317 317 317 317 319 320 320 319 318 318 317 316 317 319 319 318 318 319 320 320 319 319 318 319 319 319 318 318 318 319 320 320 319 319 319 318 318 318 318 318 318 318 317 317 317 317 317 317 317 316 316 316 316 316 316 316 316 316 316 316 316 316 316 316 316 316 316
Wind_Speed
28 28 28 29 29 28 28 26 25 25 24 24 24 23 20 11 17 33 34 27 26 18 3 3 4 2 8 11 12 13 11 10 10 11 12 10 8 9 9 9 10 9 8 10 10 8 9 10 11 11 10 12 13 11 15 13 8 14 10 13 13 9 6 6 7 7 8 9 7 6 11 15 13 11 10 9 7 6 6 5 4 3 4 4 4 6 7
28 28 28 28 28 28 27 26 25 23 22 21 21 20 17 17 26 34 28 24 20 8 0 5 6 5 11 11 11 14 12 10 10 9 8 7 6 6 7 8 10 9 8 9 8 8 9 8 9 10 8 10 15 13 25 28 9 7 6 11 13 8 6 6 6 6 8 9 7 6 8 11 9 9 12 14 12 9 6 3 4 3 5 6 5 7 7
29 28 28 27 27 27 26 25 23 21 20 18 18 17 16 17 18 19 22 25 16 4 3 5 6 9 12 11 11 13 12 12 13 10 9 9 7 6 7 9 10 7 7 8 7 7 7 3 6 10 8 9 13 17 28 26 12 12 14 6 14 12 8 8 9 10 11 9 8 8 7 6 6 7 13 17 16 14 8 4 5 6 5 6 5 6 6
29 28 28 26 26 25 24 24 22 20 19 17 16 15 12 10 8 8 16 20 11 6 9 8 6 9 11 10 10 10 10 13 18 15 8 7 9 8 8 10 9 6 8 8 6 7 9 7 6 8 9 7 7 17 26 19 12 19 24 15 3 9 8 12 14 13 12 10 7 5 6 7 8 8 13 17 18 17 11 5 6 6 4 5 6 5 4
29 28 27 26 25 23 22 22 20 18 17 15 14 14 10 5 3 5 10 11 7 8 11 9 8 9 10 7 7 11 11 10 13 13 7 9 12 8 6 8 7 7 9 8 6 8 10 10 7 6 9 9 10 18 18 11 15 19 18 17 9 5 9 15 19 16 15 13 9 7 7 10 13 11 13 17 18 17 14 10 8 7 6 8 7 6 7
29 27 26 24 23 22 21 20 19 17 16 14 12 11 7 4 5 9 11 6 4 7 11 13 12 10 9 6 6 10 12 8 9 11 11 14 15 8 5 6 8 11 11 7 6 8 8 8 6 7 9 11 14 17 9 5 16 20 14 15 9 3 8 13 19 19 17 16 15 14 8 7 12 14 14 16 18 18 17 14 10 10 8 8 6 9 9
28 26 24 22 21 20 20 18 17 16 15 14 11 8 7 6 8 11 9 5 6 11 15 18 14 10 8 6 6 8 10 10 9 8 9 12 11 9 7 7 10 12 11 7 5 6 7 6 5 6 10 12 11 12 7 5 12 16 14 13 6 2 7 9 16 18 18 17 18 18 12 7 9 13 14 16 18 20 20 16 12 12 11 8 9 11 10
27 25 23 21 20 19 19 18 17 16 14 13 11 10 9 8 8 9 7 6 10 14 14 13 10 9 7 5 5 6 8 10 10 8 8 9 8 7 9 11 11 9 8 7 5 7 8 7 7 8 10 10 7 6 6 8 12 14 11 9 5 3 6 7 9 13 16 18 19 19 17 11 8 10 12 14 17 18 18 15 10 8 7 6 9 11 9
25 24 22 21 19 18 18 17 16 15 13 12 11 12 12 11 11 12 8 6 8 9 9 8 6 5 4 4 6 7 7 9 10 10 9 10 10 9 11 12 11 9 9 8 9 11 9 9 10 11 11 10 9 8 7 10 14 13 9 8 6 3 5 7 3 8 12 15 19 21 20 13 10 11 11 11 13 14 13 12 10 8 7 7 8 8 7
25 23 21 20 19 18 17 16 15 14 13 11 11 13 12 11 12 12 8 5 6 6 6 6 5 4 4 4 6 9 11 11 9 7 7 9 14 18 17 12 7 7 9 10 15 17 14 14 18 19 19 19 19 18 16 16 16 11 8 8 6 3 4 6 4 5 9 13 18 19 16 12 11 11 11 9 9 8 7 8 10 11 10 9 7 8 9
24 23 21 20 20 19 17 16 15 14 13 11 11 13 13 11 12 12 8 4 5 6 4 4 5 6 9 10 8 10 14 12 7 4 4 9 17 23 23 15 7 5 8 14 22 23 20 21 23 26 27 25 23 23 23 22 20 15 10 7 6 6 5 4 4 5 6 12 14 12 12 11 9 7 12 12 10 9 6 3 6 7 6 5 5 7 9
23 22 22 21 20 19 18 16 14 13 12 10 11 13 13 11 11 11 6 4 5 6 4 5 7 10 14 16 13 12 14 12 11 10 9 10 17 22 21 14 6 5 11 22 27 21 18 19 19 20 23 23 20 20 21 21 20 18 14 11 10 8 6 5 3 4 5 7 12 10 11 10 6 4 10 13 13 13 9 5 5 6 5 2 0 1 5
23 22 22 21 20 19 18 16 14 12 11 10 10 12 11 9 10 10 7 5 5 5 5 8 12 15 17 17 13 13 16 16 17 16 12 11 14 18 18 12 9 12 18 27 26 15 9 10 10 11 13 12 12 14 18 21 20 18 16 14 12 9 6 5 3 3 5 3 9 10 9 5 4 3 2 6 10 12 11 8 7 8 7 3 3 2 4
24 23 22 21 20 20 18 16 14 11 10 9 9 10 10 9 10 11 10 5 4 7 8 8 9 11 14 13 11 12 15 16 15 13 13 12 12 15 17 16 17 20 20 22 19 8 3 4 5 4 4 6 7 8 11 15 15 14 14 13 13 9 6 4 3 3 3 3 4 4 3 2 4 3 0 3 6 11 11 7 4 7 7 3 3 5 4
24 23 23 22 20 20 18 16 13 11 10 9 9 10 10 10 11 12 12 9 6 8 9 8 8 9 10 13 13 11 9 9 9 10 13 12 11 15 19 18 19 21 18 14 9 3 2 3 3 2 1 3 4 4 3 6 7 8 11 11 10 11 9 5 3 3 2 2 3 3 5 4 3 4 4 1 5 11 13 9 2 6 8 5 2 6 6
24 24 24 23 20 19 18 15 13 11 10 9 10 11 11 11 10 10 12 11 7 4 5 8 12 14 12 13 15 11 7 5 5 7 8 8 10 18 23 24 23 19 13 9 4 2 2 2 3 3 2 0 1 1 2 4 6 7 10 12 7 5 8 6 4 4 4 3 3 3 4 5 6 5 2 3 10 12 11 9 1 5 6 6 3 7 7
24 25 24 22 19 18 17 15 13 11 11 10 12 13 12 11 11 11 12 12 10 10 14 18 20 18 10 8 10 10 8 8 6 4 4 7 11 16 22 27 25 13 5 3 2 2 2 2 3 2 2 1 1 1 3 4 5 7 11 13 10 4 1 2 3 6 6 4 3 2 2 3 5 6 4 7 11 10 10 5 4 4 3 5 5 8 7
23 24 23 21 19 17 16 15 13 12 12 11 13 15 13 12 11 10 12 13 10 10 15 16 14 14 11 9 11 13 12 11 6 3 4 7 8 10 18 22 16 7 5 3 1 2 2 2 4 2 2 3 2 1 2 3 2 5 8 7 5 4 3 3 3 4 7 6 4 2 1 2 3 4 3 7 11 8 4 5 5 3 1 5 10 11 11
23 23 22 20 19 19 17 16 14 14 13 12 14 16 14 12 11 10 12 16 13 12 16 17 17 21 22 20 20 19 16 14 11 6 4 4 7 13 20 16 8 5 6 3 1 2 2 2 3 2 2 2 1 2 0 2 1 3 5 4 4 4 4 4 5 4 4 3 3 2 1 1 2 3 2 6 6 4 5 5 8 10 9 11 15 14 15
22 21 21 20 20 19 18 17 16 14 15 14 14 16 15 12 11 11 12 15 17 20 26 25 21 21 20 18 19 18 15 14 12 5 2 5 11 15 13 6 4 6 5 2 1 2 2 3 3 2 2 2 2 1 1 1 1 2 4 3 3 4 3 3 3 5 4 2 2 4 3 5 13 11 4 5 2 8 11 11 13 15 16 17 17 16 16
21 21 20 20 20 19 18 18 16 15 15 14 13 16 16 11 9 12 13 14 16 18 20 19 16 18 21 23 26 26 23 23 22 15 12 14 13 8 3 4 7 5 2 2 3 2 2 3 3 2 2 2 1 1 1 1 1 2 2 2 2 3 2 1 2 4 3 3 4 3 1 13 21 12 2 5 8 20 25 19 13 14 18 20 19 17 16
21 21 20 19 19 19 18 18 16 15 15 14 12 15 16 12 11 13 14 16 18 20 24 27 28 29 29 27 26 26 26 29 30 27 22 19 16 13 12 13 14 9 4 2 2 1 2 3 3 3 3 2 0 1 1 1 1 1 2 2 1 1 1 2 3 2 3 2 3 6 9 17 18 9 14 19 22 28 31 27 20 18 19 21 20 18 16
22 22 20 19 19 19 18 17 17 15 15 14 13 15 17 15 13 13 15 18 21 25 30 29 24 23 23 19 15 16 17 20 22 23 22 19 16 17 18 17 15 12 8 5 3 1 1 3 4 3 3 2 1 1 2 1 1 1 2 1 1 1 2 2 2 2 4 4 4 11 14 16 23 23 21 26 29 29 30 32 28 22 22 24 24 21 19
24 23 21 20 19 18 17 17 16 15 15 15 14 15 18 17 15 14 16 17 17 20 21 19 17 18 18 16 14 14 16 18 20 20 19 19 16 12 14 18 16 10 7 6 4 2 2 3 4 4 3 2 1 0 0 1 1 1 2 1 1 1 5 5 2 3 4 2 5 13 13 13 22 26 23 23 26 29 31 33 30 26 26 27 25 25 24
25 23 22 21 20 19 18 17 16 16 15 15 15 16 18 18 15 14 15 15 16 15 9 11 20 21 16 18 23 22 21 21 19 19 20 22 24 20 18 21 19 14 11 7 4 2 3 3 3 4 4 3 1 1 1 1 0 2 1 0 2 3 5 5 2 3 2 2 6 13 14 17 27 29 24 21 21 26 31 32 31 29 29 28 27 27 27
26 25 23 22 21 20 19 18 17 16 15 15 16 17 18 19 16 14 16 17 19 17 8 9 20 24 23 27 30 23 18 16 16 18 20 22 24 25 25 26 25 22 18 10 4 4 5 4 3 3 4 3 2 2 2 1 1 2 0 1 4 4 3 2 2 2 2 3 6 11 10 16 25 28 25 20 18 21 28 31 32 32 32 31 30 29 28
29 26 24 23 22 21 19 18 17 17 16 16 16 17 19 19 15 14 15 15 14 11 5 6 19 31 34 32 25 16 12 11 10 12 16 19 23 25 26 27 28 26 21 13 7 7 5 3 4 4 4 6 5 2 2 2 1 1 1 2 3 2 1 1 1 2 1 1 4 8 6 6 14 21 22 19 16 18 23 27 29 32 33 34 34 33 31
29 27 25 23 22 21 20 18 17 17 17 17 17 18 19 17 12 10 11 11 11 11 10 14 25 33 31 27 22 17 12 10 10 12 14 17 20 24 26 28 29 27 22 14 8 5 3 4 5 4 4 6 5 2 2 2 0 1 1 1 2 1 1 0 0 1 2 1 3 9 9 6 10 18 21 18 15 16 20 23 25 27 29 32 35 36 34
30 28 26 25 23 21 19 17 15 16 16 16 19 20 16 10 5 4 4 4 5 11 15 19 21 20 19 22 23 17 10 6 8 12 14 16 19 22 25 27 29 27 22 15 9 5 4 5 6 5 6 6 3 2 2 1 1 1 0 4 4 2 1 1 2 2 3 3 10 14 13 9 12 19 21 18 15 15 18 21 23 24 26 29 32 33 33
31 30 28 26 23 19 17 14 14 14 14 15 17 17 12 5 0 1 5 5 4 7 10 10 10 14 23 28 24 16 14 13 11 12 14 15 17 18 18 21 26 26 21 15 12 7 4 4 5 6 9 8 3 1 1 1 1 2 2 7 7 4 3 1 2 3 2 7 14 18 17 15 16 20 20 17 15 15 16 19 21 24 26 28 29 29 30
30 30 28 25 20 16 14 12 12 13 14 14 12 9 6 3 2 5 10 10 9 10 11 9 10 16 22 23 19 18 20 19 14 13 14 13 13 14 16 18 22 24 21 15 11 7 5 5 3 3 6 7 3 2 2 1 2 2 4 8 7 6 7 4 2 6 7 12 17 20 20 19 18 19 18 14 12 12 15 17 19 21 24 26 26 27 27
28 26 25 21 16 14 12 11 11 13 14 15 15 13 10 9 9 12 14 15 15 16 13 9 8 7 8 14 19 20 18 14 10 8 10 11 12 16 17 15 14 18 16 11 7 4 6 8 6 4 7 7 3 2 2 2 2 1 4 7 9 10 12 10 4 7 12 15 15 15 16 17 19 21 20 14 10 9 11 14 15 17 19 22 23 24 24
25 22 20 17 14 13 13 12 13 14 15 16 17 14 10 8 8 8 9 13 17 17 11 5 4 3 4 13 20 17 13 11 9 5 3 5 7 12 14 11 9 10 7 5 4 3 6 8 5 3 6 6 3 2 2 2 2 1 4 7 9 12 17 18 13 6 7 9 9 8 13 17 21 24 22 17 12 10 10 11 12 13 16 19 20 21 21
24 21 18 16 14 14 14 14 14 14 15 16 15 11 9 8 7 6 7 11 12 11 8 5 3 3 6 11 11 10 13 13 7 4 5 7 6 3 4 4 4 4 3 4 4 4 6 6 3 2 3 2 1 2 2 2 2 4 7 9 10 12 18 23 22 18 13 5 8 15 22 25 26 27 25 21 17 14 11 11 11 11 14 17 18 18 18
24 22 21 18 16 14 13 12 12 12 12 13 15 14 12 10 8 7 9 10 9 6 5 5 4 3 4 5 4 7 14 14 7 5 5 7 10 8 5 5 3 1 3 4 4 4 3 4 4 3 2 1 1 2 1 2 4 7 10 13 13 13 15 18 20 23 22 16 12 21 27 27 27 28 27 24 22 20 18 18 17 17 18 18 16 15 15
26 24 22 17 14 13 10 7 7 8 10 14 18 18 14 12 12 11 11 13 12 8 5 3 3 3 3 3 3 8 13 12 9 9 6 4 7 7 5 4 1 2 3 4 3 2 2 4 4 2 1 2 3 3 4 5 6 8 12 14 15 15 15 17 22 27 27 22 18 20 27 28 28 27 25 24 22 20 19 19 19 21 22 21 18 16 16
28 25 22 17 14 13 10 6 7 10 14 17 19 18 15 15 14 11 9 11 12 11 8 5 3 4 4 3 4 7 8 7 7 8 4 2 2 4 4 3 0 2 3 3 2 1 2 3 2 1 1 2 3 5 8 8 5 5 9 12 13 13 15 19 22 25 24 21 19 20 24 28 28 26 25 24 22 19 19 18 17 18 19 20 19 18 17
31 28 25 21 17 11 7 7 10 14 17 18 17 14 11 9 7 5 5 6 6 7 8 6 5 6 5 4 6 9 7 4 5 5 2 2 1 1 2 1 1 2 2 1 1 1 2 1 1 1 1 3 5 6 7 7 3 3 7 10 11 11 14 18 20 20 19 16 14 15 20 24 25 24 24 22 21 20 21 21 21 19 19 18 17 16 15
32 31 27 23 18 14 12 12 14 15 15 13 11 8 5 4 3 2 4 4 3 4 5 5 6 8 7 5 7 11 8 3 2 2 1 1 0 0 0 1 2 2 1 2 1 1 1 1 3 3 2 3 4 4 5 7 8 8 8 11 13 14 16 20 21 21 19 16 13 14 18 21 23 23 22 21 19 18 18 20 21 21 20 20 19 17 14
34 33 28 24 23 22 18 13 12 11 8 5 4 4 3 2 2 2 1 1 2 3 4 5 7 10 11 9 7 8 6 4 3 2 1 1 1 1 1 1 1 1 0 1 1 1 1 2 3 3 2 1 2 5 8 11 13 13 13 14 17 18 20 21 20 20 19 17 15 15 18 20 21 22 22 20 20 20 19 19 19 19 19 19 20 20 18
34 32 29 26 26 24 18 12 9 7 4 1 2 3 2 2 3 2 1 2 2 2 4 5 5 5 7 9 8 6 5 5 4 2 2 2 1 0 0 1 0 1 0 1 2 2 2 3 2 2 2 5 11 14 15 16 16 16 17 18 20 21 23 22 19 18 18 19 18 19 20 21 22 22 22 22 22 22 20 19 19 19 19 19 19 19 19
32 30 28 27 26 22 16 12 10 6 2 1 1 2 2 1 2 2 1 1 2 3 3 4 5 6 7 7 7 7 5 4 2 2 1 1 1 0 0 1 1 1 1 2 3 2 2 2 2 2 6 14 19 18 15 14 15 16 17 19 21 22 23 23 22 20 19 20 21 22 22 22 23 23 22 22 21 20 19 18 19 19 19 19 19 18 18
29 27 25 23 19 15 11 9 9 7 2 0 2 2 1 1 2 1 1 2 3 3 4 5 8 10 10 6 4 5 5 3 2 2 1 0 1 1 0 0 1 2 2 1 2 2 2 3 3 4 9 15 18 17 14 13 15 18 20 21 22 23 23 24 25 25 24 23 24 24 22 22 23 22 21 20 21 21 21 20 20 20 20 20 20 20 19
25 21 19 15 12 10 7 5 6 6 3 1 2 2 2 4 3 2 3 4 3 5 8 11 11 9 6 5 4 3 3 3 2 2 1 1 1 1 1 1 1 1 1 1 2 3 3 2 2 4 10 16 17 14 14 17 20 22 23 22 21 22 23 25 26 26 26 26 26 26 26 26 26 24 22 23 24 25 24 23 22 22 22 21 20 19 19
20 16 13 9 6 7 6 3 4 5 2 1 1 1 2 4 4 4 6 9 9 12 17 18 13 8 6 6 5 2 1 1 1 1 0 1 1 1 1 1 1 2 2 2 3 3 2 2 3 5 11 17 16 12 13 19 23 23 23 22 22 23 25 25 25 26 26 26 26 26 26 26 27 27 26 26 25 25 24 23 22 22 22 22 21 20 18
15 11 8 3 3 4 3 1 1 2 1 2 4 5 5 6 7 9 13 15 16 18 20 19 13 8 5 5 4 2 2 2 1 0 1 1 1 2 2 1 1 3 3 3 4 3 1 1 3 8 16 20 17 12 11 13 18 22 23 22 20 22 23 24 24 25 25 26 26 26 25 24 24 24 23 23 22 22 22 22 21 20 21 22 22 21 20
11 8 5 2 2 3 2 0 1 3 7 9 9 10 10 10 11 13 15 15 17 20 21 18 11 5 2 2 3 2 1 1 1 1 2 2 2 2 2 2 2 3 2 3 4 3 1 2 9 16 20 21 21 20 18 17 18 21 23 21 20 21 22 23 24 24 23 23 24 25 25 25 24 23 22 21 21 20 20 20 21 21 20 21 21 20 20
9 6 4 2 1 2 3 4 6 8 11 13 13 13 15 16 15 16 19 18 18 19 16 11 7 4 1 1 2 2 1 1 2 2 3 2 1 2 3 3 3 3 2 3 4 2 3 8 14 18 19 21 23 26 26 25 23 24 24 24 23 22 21 21 22 22 22 22 23 23 23 23 23 22 22 23 23 22 21 20 21 22 23 22 21 20 20
8 5 3 3 2 3 7 10 10 11 16 17 13 11 14 16 17 21 25 24 22 19 13 7 4 4 3 3 3 2 2 3 3 2 3 3 3 2 2 3 4 3 3 3 3 5 9 14 17 19 20 23 24 25 25 25 25 25 24 23 22 21 20 20 19 19 20 21 21 21 21 21 21 22 22 23 24 24 21 18 18 21 23 23 22 22 22
7 4 3 4 4 6 11 12 8 7 14 21 21 19 18 19 22 25 25 23 22 22 16 10 7 5 3 3 3 3 3 4 3 2 3 4 3 3 3 4 4 2 2 4 7 11 16 19 21 21 21 22 23 25 25 24 24 23 21 20 20 20 20 20 19 19 19 19 19 20 21 22 22 21 22 22 22 23 22 20 19 21 23 23 23 24 24
8 7 8 10 11 11 12 11 8 6 9 15 20 23 24 24 24 23 22 23 25 21 13 6 5 3 3 4 4 2 2 3 3 2 3 4 2 2 3 4 3 4 7 11 15 18 19 20 21 20 20 20 21 23 24 24 23 23 21 20 21 22 22 22 23 24 23 22 21 22 23 24 23 21 20 20 21 24 26 25 23 24 24 24 23 23 23
7 8 12 18 23 22 19 16 15 14 16 20 23 26 27 26 23 21 22 25 24 17 10 8 5 3 3 4 3 1 2 3 3 3 4 3 2 2 4 5 6 9 13 16 18 19 20 20 19 19 19 19 19 19 20 21 23 24 23 23 23 23 22 22 21 21 22 23 23 23 23 24 23 22 22 22 22 23 25 25 24 23 23 23 23 22 21
Wind_Direction
331 330 330 331 333 333 334 333 333 335 335 334 335 337 339 325 292 307 329 354 353 348 334 292 328 289 292 298 279 266 260 258 269 269 263 266 267 270 277 278 282 281 270 274 274 273 281 268 261 268 264 274 278 289 339 341 208 187 193 198 193 190 192 201 222 248 256 247 263 257 213 200 199 207 200 188 191 178 169 182 176 196 224 195 197 239 260
329 328 329 331 331 331 332 332 333 335 335 331 331 334 329 311 301 308 330 354 350 340 289 320 331 323 314 316 311 302 289 276 281 276 276 291 287 281 293 294 294 298 303 302 290 288 287 254 262 278 262 284 293 311 357 356 317 227 219 186 177 189 196 179 187 222 245 250 264 270 232 213 209 200 195 201 192 167 160 166 160 221 220 173 188 236 250
327 327 328 328 329 329 330 332 332 334 333 328 327 328 322 317 308 302 323 342 341 328 8 357 348 340 333 335 336 325 310 306 313 312 306 309 303 293 302 309 313 324 343 339 325 326 325 305 327 328 313 318 323 338 351 349 329 313 313 232 184 191 192 181 191 203 213 221 227 222 208 211 223 198 191 201 196 181 173 156 181 227 218 161 179 231 264
326 326 325 326 327 328 328 330 330 331 330 326 324 324 317 318 312 296 322 338 340 340 358 15 10 343 338 335 330 331 328 320 322 325 322 309 306 306 308 313 321 342 352 342 327 339 340 327 335 339 326 321 322 331 335 333 324 327 333 337 249 206 198 196 201 207 207 207 219 210 166 179 215 206 189 197 201 194 180 167 195 197 179 202 208 187 238
327 325 323 323 324 325 326 327 327 328 327 323 320 317 309 304 291 301 328 337 336 339 349 6 1 330 324 324 312 319 324 317 319 324 323 316 316 311 299 304 320 344 348 336 321 337 333 320 332 346 325 317 313 320 326 333 343 341 342 349 343 241 221 207 201 208 209 201 211 216 178 187 203 201 195 199 201 194 187 199 201 151 156 231 231 173 203
328 326 323 321 321 322 324 325 325 325 323 320 317 310 297 279 280 303 317 316 317 334 329 328 331 324 321 316 297 310 320 324 329 328 327 327 326 318 286 302 345 353 347 340 327 339 332 313 338 359 331 326 331 331 330 351 359 358 345 339 343 260 248 215 199 208 210 201 212 217 198 195 204 199 196 198 199 197 198 204 186 155 181 220 203 179 201
331 329 325 321 320 320 321 322 323 321 319 316 312 295 281 275 277 295 311 304 292 299 302 308 315 320 325 311 289 311 325 327 327 330 336 332 329 334 321 329 2 356 342 343 333 333 332 317 338 354 331 328 332 328 322 336 0 359 337 326 339 298 282 232 200 206 207 201 211 216 203 187 202 209 202 196 199 200 203 206 188 180 199 197 175 191 209
334 332 330 325 323 321 319 320 320 317 315 311 300 282 276 275 279 295 309 300 288 288 295 308 312 310 314 296 286 311 322 323 328 335 331 312 309 337 329 319 334 332 317 326 311 301 310 306 312 320 316 323 325 310 311 318 329 337 324 318 347 352 297 263 210 201 206 204 205 215 214 191 186 221 218 203 201 200 203 207 191 183 202 189 181 203 226
338 336 334 330 327 324 321 321 319 315 312 305 293 283 280 279 286 295 298 289 289 292 299 307 302 297 306 293 302 317 309 312 325 321 302 286 292 320 318 308 317 313 300 299 283 281 283 275 286 293 284 285 285 280 290 297 304 316 312 303 321 332 306 304 255 203 209 204 199 211 221 210 202 223 222 204 200 200 202 202 188 182 190 182 181 203 230
341 338 337 334 331 329 324 321 318 314 308 299 288 284 287 291 296 300 299 287 290 295 296 298 296 292 302 304 307 306 299 305 321 315 296 293 303 311 307 298 304 306 292 285 282 282 279 276 282 280 271 267 264 260 261 265 271 283 294 293 292 286 308 326 304 235 214 199 198 206 213 221 229 220 202 192 190 194 208 218 212 203 188 181 196 210 214
341 339 338 336 334 331 328 323 317 311 305 297 285 283 287 294 296 299 302 286 279 288 287 288 291 290 299 305 301 294 296 304 311 293 286 304 307 305 300 291 287 280 280 300 303 293 282 282 281 275 269 262 257 256 257 256 252 249 254 268 267 268 282 296 291 266 219 185 180 189 202 220 237 194 171 176 176 171 177 222 247 240 219 204 220 220 207
340 339 338 336 334 333 330 324 318 311 306 298 285 286 290 291 289 289 285 272 287 299 290 274 281 290 298 300 299 298 299 303 308 304 297 300 304 304 301 294 286 280 299 315 313 295 280 285 279 268 263 254 247 250 254 259 257 246 236 242 258 270 274 274 270 258 235 167 147 170 209 223 240 193 171 175 168 152 132 81 15 330 315 301 138 255 232
340 338 336 335 333 332 330 326 321 315 311 301 289 290 294 294 289 282 270 263 279 281 279 281 281 283 288 291 296 303 301 302 308 308 303 301 301 305 310 316 317 308 307 312 311 294 280 294 279 259 259 254 249 249 253 260 261 251 237 233 244 257 255 259 267 256 259 184 150 182 218 235 298 320 151 154 151 134 106 63 11 351 346 352 112 83 307
342 339 336 334 332 331 331 329 325 317 312 307 296 293 293 287 281 277 273 267 269 277 283 290 286 283 288 295 304 308 307 311 312 305 305 305 294 301 317 325 322 314 308 306 306 293 263 295 290 273 265 260 264 258 254 258 257 256 256 243 233 234 232 240 250 244 242 198 158 171 197 256 326 337 86 164 164 149 126 97 359 346 352 342 119 84 19
343 341 338 335 332 331 332 330 326 320 316 313 304 298 297 290 281 278 274 266 274 282 268 256 273 294 302 305 308 307 306 313 311 303 306 302 292 309 324 326 319 316 313 308 301 266 240 285 285 291 260 239 269 281 282 279 271 275 288 278 243 221 216 208 208 248 259 181 154 123 142 192 247 248 257 268 135 140 128 108 17 333 350 350 89 80 55
342 341 339 335 331 331 332 328 326 322 317 315 311 305 303 297 288 283 275 266 268 273 241 246 278 295 299 298 298 299 297 303 313 313 310 303 306 319 326 329 328 324 318 316 309 247 269 279 244 249 248 219 328 309 299 306 299 298 312 323 320 227 213 204 199 252 268 197 166 145 159 208 220 212 242 102 123 122 103 89 354 297 333 347 57 83 63
341 342 342 338 331 331 333 330 328 324 315 314 311 306 308 306 294 286 276 265 255 258 269 280 288 291 294 296 292 291 288 290 297 294 292 308 315 319 324 330 334 336 332 332 316 249 259 261 260 270 259 271 327 278 283 311 322 325 331 341 355 9 239 230 220 229 229 205 174 161 178 220 202 182 160 135 131 108 88 109 218 253 313 353 54 77 62
341 343 346 345 337 334 334 329 325 319 315 316 309 304 310 309 297 287 275 268 262 264 276 285 284 274 270 272 278 284 288 291 290 264 274 293 299 313 324 325 324 334 359 359 264 252 271 237 253 267 236 256 264 199 282 317 336 334 334 336 345 3 8 347 316 240 218 199 166 143 218 241 203 205 185 135 124 107 116 180 202 187 109 53 70 82 74
340 342 345 345 341 338 335 331 326 320 314 313 307 304 310 310 301 294 279 271 268 266 273 278 275 275 279 277 274 278 284 285 281 275 283 287 295 316 323 320 308 315 329 329 206 267 275 221 246 260 207 253 268 158 225 315 320 325 329 339 3 10 7 357 341 308 262 196 140 124 198 257 343 345 39 97 119 178 201 156 122 115 100 72 70 76 77
339 340 341 342 340 339 337 333 330 323 315 314 310 304 308 312 304 294 282 275 272 274 280 284 280 279 284 279 271 276 286 286 280 274 255 276 300 320 328 323 334 340 322 284 289 311 271 249 274 271 204 232 257 166 140 308 310 351 341 342 8 13 5 2 335 311 309 342 58 98 135 307 320 324 358 48 112 167 144 116 105 102 93 84 76 69 73
338 338 337 338 338 338 338 334 333 330 323 321 316 306 307 317 310 295 290 287 280 276 284 291 286 280 281 278 274 272 270 269 269 267 269 276 288 310 324 285 301 322 339 308 313 322 313 308 304 289 262 251 242 156 89 3 306 328 327 316 1 27 23 23 298 310 334 352 0 45 280 301 307 299 166 87 114 135 128 117 109 101 96 94 87 78 81
340 336 334 336 336 335 336 333 332 331 326 322 318 308 305 311 311 302 299 294 283 274 281 290 291 286 283 280 278 272 266 266 267 265 264 269 271 263 261 277 284 271 243 266 289 290 335 313 298 297 296 289 301 266 205 128 66 331 323 328 21 45 329 230 222 299 319 260 296 323 314 320 338 27 99 99 105 118 119 113 108 104 104 104 98 94 94
342 339 336 334 332 331 332 330 328 326 322 319 315 307 303 307 309 304 299 296 290 288 293 297 297 291 289 292 298 296 288 283 279 270 258 253 261 265 258 260 269 267 243 215 210 222 271 269 273 283 280 282 334 252 225 140 79 337 334 334 168 133 337 295 223 321 313 265 308 332 330 348 15 38 73 97 105 111 111 108 104 101 102 104 103 103 103
339 339 337 333 331 328 324 323 321 319 317 314 310 304 301 303 308 306 300 297 295 297 302 303 294 290 298 308 314 313 304 294 291 288 270 245 241 255 258 254 257 258 237 213 211 244 275 269 274 280 286 311 346 253 174 74 59 347 1 341 219 30 8 357 9 0 339 313 333 331 330 8 33 39 50 72 91 102 105 104 104 103 103 102 102 102 102
332 331 330 328 327 324 319 318 315 313 313 310 307 304 300 301 307 305 296 292 292 293 298 297 292 295 308 312 304 299 297 290 279 277 272 254 241 243 258 264 262 262 265 257 225 230 273 279 284 289 296 315 343 300 286 121 105 334 16 136 256 339 6 6 16 3 336 267 298 313 335 24 43 50 53 54 70 91 100 104 107 107 105 103 102 102 100
330 326 322 320 320 317 315 312 309 308 309 306 303 301 300 303 308 299 288 286 286 282 271 275 289 297 306 307 304 301 299 291 272 258 259 257 251 253 263 269 266 266 266 258 244 269 272 257 264 282 292 314 342 331 283 225 251 298 233 230 283 304 343 1 343 319 288 248 288 311 347 27 32 40 55 63 70 86 97 105 108 107 105 103 100 98 98
332 328 321 315 313 312 310 308 305 303 303 302 301 300 299 303 306 294 283 281 279 277 266 264 288 300 305 307 312 319 312 302 291 268 255 249 247 250 256 259 260 260 255 246 261 287 275 247 267 271 274 294 306 291 234 233 250 247 215 273 297 306 47 38 341 313 288 229 320 342 19 41 13 20 45 67 80 90 95 99 102 102 103 103 100 96 94
333 330 324 317 313 310 308 306 303 301 302 301 301 301 301 303 303 286 275 272 267 268 273 282 293 302 308 313 324 332 322 298 279 267 264 259 249 245 248 252 253 252 246 239 249 267 237 246 276 270 262 284 296 275 240 242 255 232 222 317 329 340 60 18 248 294 290 199 60 38 50 59 28 35 52 64 70 84 93 95 97 99 100 101 101 98 95
332 329 326 320 316 313 311 307 302 301 303 303 305 310 314 313 297 277 290 295 269 267 277 288 296 299 303 313 325 339 351 332 280 261 267 271 260 250 250 250 246 242 238 235 238 245 243 249 256 263 277 289 299 292 290 346 88 239 40 40 22 13 21 249 233 268 278 144 105 83 74 66 54 62 73 70 58 65 80 88 94 97 98 98 98 98 96
331 328 324 320 317 315 312 306 301 299 298 301 309 318 327 339 24 299 323 325 299 285 292 296 297 297 300 307 319 337 346 334 308 281 275 271 262 255 252 248 243 238 233 230 232 242 265 260 248 265 284 290 287 268 299 17 212 244 36 41 31 30 42 51 214 227 199 134 120 108 101 95 84 84 87 82 67 61 68 81 92 97 98 98 97 96 94
330 327 324 319 315 316 313 307 303 299 294 296 300 300 302 309 292 296 306 306 304 307 306 291 280 291 299 303 312 325 326 320 309 292 277 265 259 258 256 252 244 232 224 227 238 251 270 267 253 272 287 287 275 249 293 324 253 263 30 41 41 39 39 45 186 198 170 141 128 119 116 114 106 96 88 80 76 74 71 76 88 95 97 98 97 96 95
331 330 329 324 318 317 317 311 304 299 294 293 291 288 288 287 280 281 287 287 289 294 295 289 283 283 293 306 315 323 328 326 323 299 267 255 257 258 259 258 238 217 214 231 248 251 256 253 246 257 270 268 261 262 284 282 242 258 30 48 53 48 49 57 94 178 168 151 135 119 117 122 119 108 97 85 77 79 77 77 83 90 95 98 97 96 95
337 335 337 336 331 325 322 316 307 302 302 302 302 308 312 295 275 271 266 265 276 282 274 267 286 261 273 304 317 334 351 350 355 7 339 302 279 253 242 232 208 194 211 254 259 260 277 269 252 245 253 250 253 288 283 262 251 327 39 52 49 48 57 64 69 92 147 177 191 160 129 126 122 114 107 98 82 71 76 87 93 95 94 94 92 91 91
340 336 335 336 334 329 324 318 309 303 302 304 308 322 331 313 289 275 254 248 260 269 258 245 257 273 296 302 307 338 355 349 345 4 13 15 9 300 223 181 156 172 230 285 277 279 293 293 293 287 262 256 282 289 275 295 343 11 40 52 48 48 58 61 59 59 63 89 167 145 126 121 119 114 109 104 96 90 94 101 106 105 97 90 88 88 87
343 338 333 327 324 324 322 317 312 306 305 310 315 321 323 313 293 275 266 261 256 248 243 244 236 251 311 308 285 335 350 351 345 331 355 44 48 42 55 68 68 197 255 292 283 262 278 309 318 311 307 337 318 274 268 27 18 18 35 48 51 54 59 58 59 64 65 64 95 120 118 113 110 109 108 106 101 97 95 91 90 92 91 88 88 87 83
346 344 339 330 323 328 331 326 320 317 315 318 321 321 317 306 294 281 270 268 265 253 245 253 236 237 298 306 282 318 335 343 346 343 353 54 54 44 64 84 79 253 260 278 266 246 291 318 315 309 326 327 319 339 26 40 42 46 57 66 69 72 77 73 67 70 68 57 57 86 101 99 95 96 102 105 105 102 96 88 82 81 80 81 84 84 82
348 349 351 349 345 345 348 355 352 337 326 321 322 320 310 298 293 283 262 258 262 255 243 241 245 248 254 256 278 310 328 337 341 348 10 83 61 42 60 79 186 256 268 258 238 280 331 310 302 354 31 329 344 23 30 22 27 75 96 97 91 85 85 79 70 68 68 57 46 59 79 86 86 86 89 92 94 93 90 87 85 82 78 75 75 78 81
349 351 355 359 358 353 346 341 331 320 314 313 314 310 300 291 289 273 240 243 259 254 238 231 254 263 248 232 263 285 304 327 324 328 30 93 93 30 45 52 213 230 285 294 267 5 10 341 335 4 1 342 358 20 25 18 27 130 129 115 102 89 83 84 85 85 85 78 67 69 78 83 87 88 88 88 88 85 82 81 84 85 82 76 72 74 80
349 350 353 357 355 344 330 319 311 303 302 305 302 292 282 281 286 262 226 217 235 251 236 229 251 254 236 226 276 288 288 288 298 311 26 64 5 209 142 183 195 206 276 311 330 6 21 15 6 9 9 356 2 19 37 48 71 100 112 107 103 96 89 91 99 106 108 108 112 109 100 95 94 94 93 93 94 91 86 82 80 80 79 77 76 78 86
349 348 347 346 343 341 339 333 319 311 310 302 274 267 272 266 253 254 253 245 239 228 221 237 260 257 245 241 265 289 284 256 257 302 331 299 256 178 182 202 187 167 233 317 338 25 68 44 14 353 305 283 56 73 74 72 79 92 101 103 102 98 95 96 103 109 111 112 113 110 105 104 106 106 104 101 98 94 88 83 78 77 77 77 76 78 83
343 343 340 335 335 341 350 0 354 335 316 241 233 265 271 246 244 256 297 315 279 228 225 243 259 263 256 247 244 256 275 270 263 278 299 285 263 163 157 244 244 147 106 339 351 35 62 43 6 310 324 16 35 50 65 75 81 89 96 98 96 94 93 93 95 100 104 105 101 97 97 100 104 105 104 101 98 94 91 87 83 81 80 80 80 82 84
335 336 336 335 337 342 351 2 5 357 319 237 297 282 231 245 291 285 244 253 289 300 287 268 270 294 304 285 258 254 273 280 257 247 278 291 272 241 224 289 328 42 58 16 6 32 55 36 6 340 3 20 32 44 56 67 75 83 88 90 89 88 88 88 89 93 98 101 98 94 93 95 96 97 96 95 92 91 90 88 85 82 82 82 82 83 83
334 337 337 335 336 343 348 351 358 7 22 51 346 335 306 325 346 329 268 266 272 281 296 304 307 313 318 313 277 256 263 268 250 230 225 258 302 314 82 18 14 52 74 40 24 43 52 40 24 357 4 23 40 52 57 62 71 76 79 82 85 86 87 89 90 91 92 92 91 88 87 89 91 91 91 89 87 86 87 86 85 84 83 82 81 81 81
338 342 340 330 327 341 351 345 352 5 14 352 352 347 316 317 324 311 308 313 298 288 303 314 317 318 321 326 313 284 270 268 254 234 222 281 290 314 49 28 14 47 77 63 56 58 43 16 343 341 5 20 31 43 59 73 80 80 79 82 88 92 93 93 91 88 87 87 85 84 83 84 86 87 87 86 85 85 84 83 83 84 83 82 82 81 79
343 346 345 333 329 352 6 3 350 358 359 291 301 300 299 318 320 295 296 304 298 296 307 316 317 306 309 326 330 306 277 298 275 208 5 344 352 40 28 1 14 47 53 51 53 57 49 352 311 348 21 29 31 41 66 80 86 86 86 86 87 89 92 92 88 86 86 86 86 87 87 86 86 86 86 85 84 83 81 80 80 82 82 81 81 80 77
346 351 354 342 330 351 10 43 349 347 314 277 301 298 286 287 287 290 299 302 297 298 308 317 316 299 302 333 340 296 277 316 350 31 331 2 43 18 343 334 35 41 43 54 58 67 108 229 356 29 42 47 52 63 79 91 94 92 90 89 87 87 88 88 87 86 86 85 85 87 89 89 89 87 83 80 77 75 75 76 77 80 80 77 76 78 78
348 353 354 342 322 332 345 120 239 260 256 264 285 308 318 313 309 317 321 314 304 305 312 318 320 315 305 332 333 317 302 350 28 358 359 39 61 13 347 18 48 36 39 65 64 70 126 50 39 43 49 53 57 63 73 84 90 88 86 88 90 90 90 88 86 85 85 85 85 84 82 84 86 85 81 77 74 71 70 70 72 76 80 79 77 77 78
346 349 346 330 261 258 297 312 307 299 296 288 284 299 315 318 323 342 351 346 336 332 330 326 328 343 349 316 323 331 350 8 15 8 4 22 49 20 12 34 39 22 33 60 58 54 58 52 50 55 62 65 64 65 69 73 77 78 80 83 85 86 87 87 83 82 83 85 86 83 78 77 78 78 76 74 73 71 70 70 72 76 79 78 76 76 79
341 339 323 304 269 283 319 327 328 339 351 353 343 324 316 317 335 357 5 3 2 6 9 5 359 358 343 332 353 18 16 12 17 12 3 17 35 24 12 36 45 34 31 40 41 46 55 59 60 65 70 72 72 72 73 75 77 78 78 79 79 82 85 84 80 81 86 87 83 78 75 76 79 78 75 72 70 68 69 74 80 81 78 76 76 80 82
353 342 315 321 332 335 339 343 344 350 360 4 6 2 355 354 4 12 13 12 17 25 32 33 28 20 357 350 15 32 17 11 19 12 8 22 29 12 15 41 50 36 35 55 58 60 63 65 67 69 70 71 74 76 77 79 80 80 77 75 76 80 81 79 76 79 87 89 83 77 76 77 78 76 74 73 71 69 71 80 89 88 83 80 79 79 79
4 353 345 356 7 5 359 360 2 355 354 359 5 9 11 12 14 20 26 29 30 33 31 16 4 10 18 24 32 18 325 339 3 27 30 27 15 7 32 48 46 41 54 59 61 65 69 70 70 71 72 72 75 80 82 82 80 77 75 75 76 77 78 78 78 80 84 85 84 82 80 78 76 74 74 75 74 72 74 80 87 90 88 86 83 82 81
4 357 358 8 16 21 22 19 13 10 12 14 15 18 20 20 22 31 39 40 39 36 24 4 6 39 45 23 9 322 323 356 17 30 32 25 4 6 35 48 53 62 67 65 63 68 74 74 70 70 73 77 82 87 89 86 80 75 75 78 80 79 78 78 79 81 81 81 81 82 82 80 78 78 77 75 72 70 70 73 78 83 85 84 84 83 83